Погода в Ломже

Польша     53˚10′23″N   22˚04′06″E
темп.,
°C
ветер,
м/с
пор.,
м/с
влажн.,
%
обл.,
%
осадки,
мм/ч
давл.,
гПа
погр.,
м
5 декабря, сб
сб501:00+2˚юв6158821 0.0 1011410
04:00+3˚юв7159080 0.0 1011395
07:00+3˚юв7168979 0.0 1012396
10:00+5˚юв8158541 0.0 1013444
13:00+7˚юв8158369 0.0 1013519
16:00+6˚юв8159196 0.0 1014454
19:00+6˚юв8169098 0.0 1015462
22:00+6˚юв81691100 0.0 1016463
6 декабря, вс
вс601:00+5˚юв8169199 0.0 1017459
04:00+5˚юв9158994 0.0 1017499
07:00+6˚юв10168597 0.0 1018563
10:00+6˚юв11178099 0.0 1018587
13:00+6˚юв10157791 0.0 1019650
16:00+4˚юв9157796 0.0 1019757
19:00+3˚юв9177188 0.0 1020742
22:00+2˚юв9176813 0.0 1020757
7 декабря, пн
пн701:00юв10185820 0.0 1020752
04:00юв10185434 0.0 1018773
07:00−1˚юв10174817 0.0 1018779
10:00юв11184276 0.0 1018818
13:00+1˚юв10163984 0.0 1018869
16:00−1˚юв10174762 0.0 1018792
19:00−1˚юв10175831 0.0 1018787
22:00−2˚юв1017660 0.0 1018798
8 декабря, вт
вт801:00−3˚юв9167025 0.0 1018886
04:00−1˚юв9157299 0.0 10171046
07:00−1˚юв91473100 0.0 10171005
10:00−2˚юв91471100 0.1 1017839
13:00−2˚юв9138699 0.1 1017739
16:00−2˚юв81393100 0.8 1017638
19:00−2˚юв71282100 1.0 1018522
22:00−2˚вюв71284100 0.0 1018476
9 декабря, ср
ср901:00−2˚вюв61183100 0.0 1019521
04:00−2˚вюв61086100 0.0 1019467
07:00−1˚вюв61085100 0.0 1019551
10:00вюв5984100 0.0 1020494
13:00+1˚вюв5983100 0.0 1018676
16:00в61087100 0.0 1018410
19:00вюв51088100 0.0 1018509
22:00вюв4991100 0.0 1018408